Location: Cahas Mountain Overlook
(37.0833°N, 80.1000°W)
Time: 23:37:29
(UTC-05:00)

SR - Visible Passes

Search period start: 28 November 2023 00:00
Search period end: 08 December 2023 00:00
Orbit: 571 x 872 km, 66.7° (Epoch: 28 November)

Date Brightness Start Highest point End Pass type
(mag) Time Alt. Az. Time Alt. Az. Time Alt. Az.
06 Dec ? 19:26:59 10° N 19:27:29 12° N 19:27:29 12° N visible
07 Dec ? 18:36:27 10° N 18:37:45 13° NNE 18:37:45 13° NNE visible
07 Dec ? 20:16:51 10° NNW 20:17:04 11° NNW 20:17:04 11° NNW visible
